TimeCDT,TemperatureF,Dew PointF,Humidity,Sea Level PressureIn,VisibilityMPH,Wind Direction,Wind SpeedMPH,Gust SpeedMPH,PrecipitationIn,Events,Conditions,WindDirDegrees,DateUTC
12:15 AM,64.4,55.4,73,30.01,10.0,SSE,10.4,18.4,N/A,,Overcast,150,2013-04-28 05:15:00
12:35 AM,64.4,55.4,73,30.02,10.0,SSE,10.4,25.3,N/A,,Overcast,160,2013-04-28 05:35:00
12:55 AM,62.6,53.6,72,30.02,10.0,SSE,13.8,19.6,N/A,Thunderstorm,Overcast,150,2013-04-28 05:55:00
1:15 AM,62.6,53.6,72,30.01,10.0,SSE,12.7,19.6,N/A,,Overcast,160,2013-04-28 06:15:00
1:35 AM,62.6,53.6,72,29.99,10.0,SSE,12.7,20.7,N/A,Thunderstorm,Thunderstorm,150,2013-04-28 06:35:00
1:55 AM,62.6,53.6,72,29.98,10.0,SSE,13.8,17.3,N/A,Thunderstorm,Thunderstorm,160,2013-04-28 06:55:00
2:15 AM,62.6,53.6,72,29.98,10.0,SSE,6.9,-,N/A,Thunderstorm,Thunderstorm,160,2013-04-28 07:15:00
2:35 AM,62.6,53.6,72,30.00,10.0,WNW,5.8,-,N/A,Rain-Thunderstorm,Light Thunderstorms and Rain,300,2013-04-28 07:35:00
2:55 AM,62.6,55.4,77,30.00,2.0,SSW,8.1,-,0.22,Rain-Thunderstorm,Heavy Thunderstorms and Rain,200,2013-04-28 07:55:00
3:15 AM,60.8,55.4,82,30.01,10.0,SSW,6.9,-,0.01,Rain-Thunderstorm,Thunderstorms and Rain,200,2013-04-28 08:15:00
3:35 AM,60.8,55.4,82,29.98,10.0,South,4.6,-,0.02,Rain-Thunderstorm,Light Thunderstorms and Rain,170,2013-04-28 08:35:00
3:55 AM,60.8,55.4,82,29.95,10.0,South,6.9,-,0.02,Rain-Thunderstorm,Light Thunderstorms and Rain,180,2013-04-28 08:55:00
4:15 AM,60.8,53.6,77,29.94,10.0,Calm,Calm,-,N/A,Thunderstorm,Scattered Clouds,0,2013-04-28 09:15:00
4:35 AM,59.0,53.6,82,29.95,10.0,SW,4.6,-,N/A,Thunderstorm,Scattered Clouds,220,2013-04-28 09:35:00
4:55 AM,59.0,53.6,82,29.97,10.0,SSW,3.5,-,N/A,Thunderstorm,Mostly Cloudy,210,2013-04-28 09:55:00
5:15 AM,59.0,53.6,82,29.95,10.0,SSE,6.9,-,N/A,Thunderstorm,Scattered Clouds,150,2013-04-28 10:15:00
5:35 AM,59.0,53.6,82,29.97,10.0,South,3.5,-,N/A,Thunderstorm,Mostly Cloudy,170,2013-04-28 10:35:00
5:55 AM,59.0,53.6,82,29.97,10.0,Calm,Calm,-,N/A,Rain-Thunderstorm,Rain,0,2013-04-28 10:55:00
6:15 AM,59.0,55.4,88,29.97,10.0,SE,4.6,-,N/A,Thunderstorm,Thunderstorm,140,2013-04-28 11:15:00
6:35 AM,59.0,55.4,88,29.97,10.0,SSE,6.9,-,N/A,,Overcast,150,2013-04-28 11:35:00
6:55 AM,59.0,55.4,88,29.97,10.0,SSE,4.6,-,N/A,Thunderstorm,Thunderstorm,150,2013-04-28 11:55:00
7:15 AM,60.8,55.4,82,29.97,7.0,SSE,6.9,-,0.02,Rain-Thunderstorm,Light Thunderstorms and Rain,160,2013-04-28 12:15:00
7:35 AM,62.6,59.0,88,29.98,7.0,South,15.0,-,0.02,Thunderstorm,Thunderstorm,190,2013-04-28 12:35:00
8:15 AM,62.6,59.0,88,29.99,7.0,South,9.2,-,N/A,,Overcast,190,2013-04-28 13:15:00
8:35 AM,62.6,59.0,88,29.99,7.0,South,6.9,-,N/A,Thunderstorm,Overcast,190,2013-04-28 13:35:00
8:55 AM,64.4,59.0,83,29.99,5.0,South,6.9,-,N/A,,Haze,190,2013-04-28 13:55:00
9:15 AM,64.4,60.8,88,29.97,5.0,South,9.2,-,N/A,Thunderstorm,Haze,190,2013-04-28 14:15:00
9:35 AM,64.4,60.8,88,29.98,5.0,South,11.5,-,N/A,,Haze,190,2013-04-28 14:35:00
9:55 AM,66.2,60.8,83,29.97,7.0,South,11.5,16.1,N/A,Thunderstorm,Overcast,180,2013-04-28 14:55:00
10:15 AM,64.4,60.8,88,29.97,7.0,South,10.4,-,N/A,Thunderstorm,Thunderstorm,190,2013-04-28 15:15:00
10:35 AM,64.4,59.0,83,29.98,4.0,South,19.6,29.9,0.01,Rain-Thunderstorm,Thunderstorms and Rain,190,2013-04-28 15:35:00
10:55 AM,62.6,57.2,82,29.99,5.0,SW,8.1,-,0.05,Rain-Thunderstorm,Heavy Thunderstorms and Rain,220,2013-04-28 15:55:00
11:15 AM,62.6,59.0,88,29.99,3.0,South,9.2,-,0.07,Rain,Heavy Rain,190,2013-04-28 16:15:00
11:35 AM,62.6,57.2,82,30.00,4.0,SSW,12.7,23.0,0.12,Rain-Thunderstorm,Light Thunderstorms and Rain,210,2013-04-28 16:35:00
11:55 AM,62.6,57.2,82,29.98,10.0,South,6.9,-,0.12,Rain-Thunderstorm,Thunderstorms and Rain,170,2013-04-28 16:55:00
12:15 PM,62.6,57.2,82,30.00,5.0,SW,9.2,-,0.02,Rain-Thunderstorm,Rain,230,2013-04-28 17:15:00
12:35 PM,62.6,57.2,82,29.97,5.0,South,5.8,-,0.04,Rain-Thunderstorm,Light Thunderstorms and Rain,180,2013-04-28 17:35:00
12:55 PM,62.6,55.4,77,29.96,10.0,South,9.2,-,0.06,Rain,Light Rain,190,2013-04-28 17:55:00
1:15 PM,60.8,55.4,82,29.98,10.0,West,16.1,25.3,0.01,Rain,Light Rain,280,2013-04-28 18:15:00
1:35 PM,60.8,53.6,77,29.97,10.0,SW,8.1,19.6,0.01,Rain,Light Rain,230,2013-04-28 18:35:00
1:55 PM,60.8,55.4,82,29.95,10.0,West,5.8,-,0.01,Rain,Light Rain,270,2013-04-28 18:55:00
2:15 PM,60.8,55.4,82,29.94,10.0,WSW,5.8,-,N/A,,Overcast,240,2013-04-28 19:15:00
2:35 PM,60.8,55.4,82,29.95,10.0,SW,6.9,-,N/A,,Overcast,230,2013-04-28 19:35:00
2:55 PM,60.8,55.4,82,29.96,10.0,SSW,9.2,-,N/A,,Overcast,200,2013-04-28 19:55:00
3:15 PM,60.8,55.4,82,29.97,10.0,SSW,10.4,16.1,N/A,,Overcast,210,2013-04-28 20:15:00
3:35 PM,60.8,55.4,82,29.97,10.0,SW,9.2,16.1,N/A,,Overcast,230,2013-04-28 20:35:00
3:55 PM,60.8,55.4,82,29.97,10.0,SSW,8.1,-,N/A,,Overcast,210,2013-04-28 20:55:00
4:15 PM,60.8,55.4,82,29.96,10.0,SSW,12.7,16.1,N/A,,Overcast,210,2013-04-28 21:15:00
4:35 PM,60.8,55.4,82,29.95,10.0,SSW,11.5,17.3,N/A,,Overcast,200,2013-04-28 21:35:00
4:55 PM,60.8,55.4,82,29.94,10.0,SSW,8.1,-,N/A,,Mostly Cloudy,210,2013-04-28 21:55:00
5:15 PM,60.8,55.4,82,29.94,10.0,SSW,6.9,-,N/A,,Overcast,200,2013-04-28 22:15:00
5:35 PM,60.8,55.4,82,29.94,10.0,SSW,4.6,-,N/A,,Overcast,200,2013-04-28 22:35:00
5:55 PM,60.8,55.4,82,29.95,10.0,SW,6.9,-,N/A,,Overcast,220,2013-04-28 22:55:00
6:15 PM,60.8,55.4,82,29.95,10.0,SSW,5.8,-,N/A,,Overcast,210,2013-04-28 23:15:00
6:35 PM,60.8,55.4,82,29.96,10.0,South,5.8,-,N/A,,Overcast,190,2013-04-28 23:35:00
6:55 PM,60.8,55.4,82,29.96,10.0,South,4.6,-,N/A,,Overcast,180,2013-04-28 23:55:00
7:15 PM,60.8,55.4,82,29.96,10.0,South,4.6,-,N/A,,Overcast,180,2013-04-29 00:15:00
7:35 PM,60.8,55.4,82,29.95,10.0,South,4.6,-,N/A,,Overcast,180,2013-04-29 00:35:00
7:55 PM,59.0,55.4,88,29.95,10.0,South,3.5,-,N/A,,Mostly Cloudy,180,2013-04-29 00:55:00
8:15 PM,59.0,55.4,88,29.96,10.0,SSW,4.6,-,N/A,,Overcast,200,2013-04-29 01:15:00
8:35 PM,59.0,55.4,88,29.97,10.0,Calm,Calm,-,N/A,,Overcast,0,2013-04-29 01:35:00
8:55 PM,59.0,55.4,88,29.97,10.0,Calm,Calm,-,N/A,,Overcast,0,2013-04-29 01:55:00
9:15 PM,59.0,55.4,88,29.97,10.0,SSW,4.6,-,N/A,,Mostly Cloudy,200,2013-04-29 02:15:00
9:35 PM,59.0,53.6,82,29.98,10.0,South,3.5,-,N/A,,Mostly Cloudy,180,2013-04-29 02:35:00
9:55 PM,59.0,53.6,82,29.98,10.0,Calm,Calm,-,N/A,,Scattered Clouds,0,2013-04-29 02:55:00
10:15 PM,57.2,53.6,88,29.97,10.0,Calm,Calm,-,N/A,,Scattered Clouds,0,2013-04-29 03:15:00
10:35 PM,57.2,53.6,88,29.97,10.0,Calm,Calm,-,N/A,,Mostly Cloudy,0,2013-04-29 03:35:00
10:55 PM,55.4,51.8,88,29.97,10.0,Calm,Calm,-,N/A,,Scattered Clouds,0,2013-04-29 03:55:00
11:15 PM,57.2,53.6,88,29.98,10.0,Calm,Calm,-,N/A,,Mostly Cloudy,0,2013-04-29 04:15:00
11:35 PM,57.2,53.6,88,29.98,10.0,Calm,Calm,-,N/A,,Overcast,0,2013-04-29 04:35:00
11:55 PM,57.2,53.6,88,29.98,10.0,Calm,Calm,-,N/A,,Overcast,0,2013-04-29 04:55:00